Regional Weather Roundup
Issued by NWS Green Bay, WI

Home | Current Version | Previous Version | Graphics & Text | Print | Product List | Glossary Off
Versions: 1 2 3 4 5 6 7 8 9 10 11 12 13 14 15 16 17 18 19 20 21 22 23 24 25 26 27 28 29 30 31 32 33 34 35 36 37 38 39 40 41 42 43 44 45 46 47 48 49 50

000
ASUS43 KGRB 040059
RWRGRB

NORTH-CENTRAL AND NORTHEAST WISCONSIN REGIONAL WEATHER ROUNDUP
NATIONAL WEATHER SERVICE GREEN BAY WI
700 PM CST TUE MAR 03 2015

WIZ005-009-010>012-018-019-040200-
NORTH CENTRAL WISCONSIN

CITY           SKY/WX    TMP DP  RH WIND       PRES   REMARKS
IRONWOOD       CLOUDY    19   9  63 W15G22    29.63R WCI   5
MANITOWISH WTR NOT AVBL
ARBOR VITAE    NOT AVBL
EAGLE RIVER    NOT AVBL
LAND O LAKES   NOT AVBL
RHINELANDER    CLOUDY    23  17  78 W16       29.60R WCI  10
PHILLIPS       PTCLDY    21  12  69 NW10G16   29.65R WCI   9
ANTIGO         NOT AVBL
TOMAHAWK       NOT AVBL
MERRILL        NOT AVBL
$$

WIZ013-073-040200-
NORTHEAST WISCONSIN

CITY           SKY/WX    TMP DP  RH WIND       PRES   REMARKS
IRON MOUNTAIN  FLURRIES  25  17  72 W7        29.56R
MARINETTE      CLOUDY    28  18  64 W6        29.61R
$$

WIZ017-030-035>037-045-040200-
CENTRAL WISCONSIN

CITY           SKY/WX    TMP DP  RH WIND       PRES   REMARKS
MEDFORD        NOT AVBL
WAUSAU         CLOUDY    26  19  74 W17G24    29.64R
MOSINEE        NOT AVBL
MARSHFIELD     CLOUDY    27  17  66 NW13      29.68R
WISC RAPIDS    CLOUDY    28  18  66 W12       29.70R
STEVENS POINT  NOT AVBL
WAUPACA        NOT AVBL
SHAWANO        NOT AVBL
CLINTONVILLE   CLOUDY    30  19  64 W10       29.65R
$$

WIZ038-039-048-051-040200-
FOX VALLEY

CITY           SKY/WX    TMP DP  RH WIND       PRES   REMARKS
NWS GREEN BAY  CLOUDY    29  20  69 W14       29.66R
APPLETON       CLOUDY    28  21  74 W10       29.67R
OSHKOSH        CLOUDY    29  21  72 W6        29.67R
FOND DU LAC    CLOUDY    29  21  72 W6        29.69R
$$

WIZ022-050-052-040200-
EAST CENTRAL WISCONSIN

CITY           SKY/WX    TMP DP  RH WIND       PRES   REMARKS
STURGEON BAY     N/A     25  18  74 W10       29.64R
MANITOWOC      NOT AVBL
SHEBOYGAN      CLOUDY    29  20  69 W10G21    29.69R
$$

LMZ563-521-522-541>543-040200-
LAKESHORE

STATION/POSITION TIME  TEMP    WIND        PRES    VSBY  WAVE
                       AIR SEA DIR/SP/G                  HT/PER
                 (UTC) (F)     (DEG/KT/KT) (MB)    (MI)  (FT/S)
SHEBOYGAN LKSHOR 0000   29     270/  6/  8 1005.7R
KEWAUNEE LKSHORE 0000   27     250/  7/ 10 1003.3R
NORTHPORT PIER   0000   27     250/  4/  8 1001.4R
SISTER BAY LKSHO 0000   25     250/ 10/ 11   N/A
CHAMBERS ISLAND  0000   27     210/  5/  9 1003.0R
MENOMINEE LKSHOR 0000   28     220/  8     1003.4R
$$



USA.gov is the U.S. government's official web portal to all federal, state and local government web resources and services.